QTR93X LFPG-OTHH

Flight info

Callsign QTR93X
Flight time 4h 30m
Altitude 37000
Route LANVI6G LANVI DCT BEGAR DCT TRA DCT SUXAN DCT ROTAR DCT VAKSU DCT PINDO DCT PAXIS DCT OBRAN L321 REXUM M872 SEMRU/N0492F390 M872 BDB Y214 RAPMA DCT LADBO T142 LAEEB LAEEB1F
Aircraft A388/J-V/N

Departure

Time 2026-05-07 07:49
Airport Charles de Gaulle International Airport (LFPG)

Arrival

Time 2026-05-07 12:20
Airport Hamad International Airport (OTHH)
Time Latitude Longitude Altitude Speed Heading
2026-05-07 07:00 49.01695 2.54301 359 ft 0 kts 195°
2026-05-07 07:30 49.01697 2.54302 359 ft 1 kts 195°
2026-05-07 07:30 49.01704 2.54305 366 ft 1 kts 195°
2026-05-07 07:30 49.01712 2.54308 365 ft 2 kts 195°
2026-05-07 07:31 49.01723 2.54313 362 ft 0 kts 195°
2026-05-07 07:31 49.01738 2.54318 367 ft 3 kts 188°
2026-05-07 07:31 49.01761 2.54316 367 ft 4 kts 168°
2026-05-07 07:31 49.01781 2.54298 368 ft 4 kts 139°
2026-05-07 07:32 49.01795 2.54268 368 ft 3 kts 117°
2026-05-07 07:32 49.01801 2.54241 368 ft 0 kts 103°
2026-05-07 07:32 49.01801 2.54242 368 ft 0 kts 104°
2026-05-07 07:36 49.01799 2.54252 368 ft 1 kts 91°
2026-05-07 07:36 49.01800 2.54259 368 ft 2 kts 77°
2026-05-07 07:36 49.01810 2.54306 368 ft 7 kts 71°
2026-05-07 07:36 49.01824 2.54390 361 ft 10 kts 83°
2026-05-07 07:37 49.01830 2.54504 366 ft 12 kts 86°
2026-05-07 07:37 49.01835 2.54642 359 ft 14 kts 89°
2026-05-07 07:37 49.01807 2.54785 365 ft 15 kts 126°
2026-05-07 07:37 49.01717 2.54876 366 ft 17 kts 170°
2026-05-07 07:38 49.01594 2.54894 359 ft 19 kts 175°
2026-05-07 07:38 49.01456 2.54910 364 ft 21 kts 175°
2026-05-07 07:38 49.01311 2.54953 363 ft 22 kts 164°
2026-05-07 07:38 49.01163 2.55018 367 ft 23 kts 163°
2026-05-07 07:39 49.01009 2.55087 365 ft 23 kts 163°
2026-05-07 07:39 49.00851 2.55154 366 ft 24 kts 165°
2026-05-07 07:39 49.00692 2.55222 367 ft 24 kts 164°
2026-05-07 07:39 49.00524 2.55296 366 ft 25 kts 163°
2026-05-07 07:40 49.00358 2.55370 367 ft 25 kts 164°
2026-05-07 07:40 49.00207 2.55435 362 ft 18 kts 164°
2026-05-07 07:40 49.00108 2.55477 368 ft 14 kts 165°
2026-05-07 07:40 49.00039 2.55507 365 ft 11 kts 163°
2026-05-07 07:41 48.99953 2.55549 367 ft 15 kts 160°
2026-05-07 07:41 48.99866 2.55644 365 ft 17 kts 126°
2026-05-07 07:41 48.99822 2.55811 361 ft 18 kts 105°
2026-05-07 07:41 48.99800 2.55999 365 ft 18 kts 88°
2026-05-07 07:42 48.99809 2.56193 359 ft 19 kts 85°
2026-05-07 07:42 48.99820 2.56394 359 ft 19 kts 85°
2026-05-07 07:42 48.99832 2.56599 367 ft 20 kts 85°
2026-05-07 07:42 48.99843 2.56807 363 ft 20 kts 85°
2026-05-07 07:43 48.99854 2.57019 363 ft 20 kts 85°
2026-05-07 07:43 48.99863 2.57233 362 ft 20 kts 86°
2026-05-07 07:43 48.99874 2.57446 366 ft 21 kts 85°
2026-05-07 07:43 48.99884 2.57664 363 ft 21 kts 85°
2026-05-07 07:44 48.99898 2.57880 359 ft 21 kts 85°
2026-05-07 07:44 48.99910 2.58096 364 ft 21 kts 85°
2026-05-07 07:44 48.99922 2.58315 366 ft 21 kts 85°
2026-05-07 07:44 48.99934 2.58534 359 ft 21 kts 86°
2026-05-07 07:45 48.99946 2.58753 367 ft 21 kts 85°
2026-05-07 07:45 48.99958 2.58972 363 ft 21 kts 85°
2026-05-07 07:45 48.99970 2.59193 359 ft 21 kts 85°
2026-05-07 07:45 48.99982 2.59413 361 ft 21 kts 85°
2026-05-07 07:46 48.99993 2.59632 364 ft 21 kts 86°
2026-05-07 07:46 49.00004 2.59849 367 ft 19 kts 85°
2026-05-07 07:46 49.00013 2.60040 364 ft 5 kts 77°
2026-05-07 07:46 49.00015 2.60059 365 ft 4 kts 79°
2026-05-07 07:47 49.00022 2.60119 364 ft 7 kts 83°
2026-05-07 07:47 49.00006 2.60194 363 ft 9 kts 129°
2026-05-07 07:47 48.99953 2.60231 365 ft 10 kts 180°
2026-05-07 07:47 48.99885 2.60188 368 ft 12 kts 214°
2026-05-07 07:48 48.99829 2.60085 366 ft 12 kts 258°
2026-05-07 07:48 48.99826 2.60065 364 ft 3 kts 261°
2026-05-07 07:48 48.99808 2.59794 360 ft 61 kts 265°
2026-05-07 07:48 48.99759 2.58786 363 ft 126 kts 265°
2026-05-07 07:49 48.99678 2.57223 358 ft 165 kts 266°
2026-05-07 07:49 48.99595 2.55437 667 ft 171 kts 268°
2026-05-07 07:49 48.99508 2.53607 1058 ft 174 kts 266°
2026-05-07 07:49 48.99400 2.51759 1537 ft 175 kts 266°
2026-05-07 07:50 48.99290 2.49899 2043 ft 178 kts 266°
2026-05-07 07:50 48.99182 2.48034 2655 ft 177 kts 266°
2026-05-07 07:50 48.99076 2.46154 3244 ft 179 kts 266°
2026-05-07 07:50 48.98969 2.44228 3677 ft 189 kts 266°
2026-05-07 07:51 48.98856 2.42155 3909 ft 206 kts 267°
2026-05-07 07:51 48.98735 2.39899 4041 ft 223 kts 266°
2026-05-07 07:51 48.98599 2.37410 4275 ft 246 kts 266°
2026-05-07 07:51 48.98447 2.34698 4597 ft 266 kts 266°
2026-05-07 07:52 48.98288 2.31879 5385 ft 268 kts 265°
2026-05-07 07:52 48.97772 2.29131 6119 ft 273 kts 239°
2026-05-07 07:52 48.96511 2.27060 6905 ft 274 kts 212°
2026-05-07 07:52 48.94738 2.26053 7656 ft 275 kts 186°
2026-05-07 07:53 48.92814 2.26048 8376 ft 279 kts 176°
2026-05-07 07:53 48.90870 2.26285 9120 ft 281 kts 176°
2026-05-07 07:53 48.88907 2.26490 9870 ft 285 kts 177°
2026-05-07 07:53 48.86902 2.26617 10402 ft 294 kts 179°
2026-05-07 07:54 48.84799 2.26901 10567 ft 315 kts 167°
2026-05-07 07:54 48.82746 2.28318 10754 ft 335 kts 144°
2026-05-07 07:54 48.81147 2.30948 11233 ft 345 kts 121°
2026-05-07 07:54 48.80246 2.34335 11859 ft 349 kts 106°
2026-05-07 07:55 48.79645 2.37935 12472 ft 353 kts 103°
2026-05-07 07:55 48.79107 2.41590 13046 ft 358 kts 103°
2026-05-07 07:55 48.78576 2.45242 13640 ft 362 kts 103°
2026-05-07 07:55 48.78022 2.48983 14205 ft 365 kts 103°
2026-05-07 07:56 48.77452 2.52752 14756 ft 368 kts 103°
2026-05-07 07:56 48.76871 2.56539 15303 ft 371 kts 103°
2026-05-07 07:56 48.76283 2.60357 15839 ft 374 kts 103°
2026-05-07 07:56 48.75687 2.64203 16408 ft 375 kts 103°
2026-05-07 07:57 48.75086 2.68076 16923 ft 378 kts 103°
2026-05-07 07:57 48.74480 2.71967 17440 ft 381 kts 103°
2026-05-07 07:57 48.73864 2.75911 17939 ft 384 kts 103°
2026-05-07 07:57 48.73245 2.79862 18434 ft 387 kts 103°
2026-05-07 07:58 48.72619 2.83843 18872 ft 390 kts 103°
2026-05-07 07:58 48.71986 2.87855 19308 ft 392 kts 103°
2026-05-07 07:58 48.71351 2.91873 19730 ft 395 kts 103°
2026-05-07 07:58 48.70708 2.95934 20158 ft 398 kts 104°
2026-05-07 07:59 48.70059 3.00019 20577 ft 400 kts 104°
2026-05-07 07:59 48.69404 3.04129 21008 ft 403 kts 104°
2026-05-07 07:59 48.68745 3.08255 21440 ft 404 kts 104°
2026-05-07 07:59 48.68089 3.12354 21841 ft 407 kts 104°
2026-05-07 08:00 48.67420 3.16527 22234 ft 410 kts 104°
2026-05-07 08:00 48.66742 3.20737 22630 ft 413 kts 104°
2026-05-07 08:00 48.66061 3.24959 23034 ft 415 kts 104°
2026-05-07 08:00 48.65373 3.29218 23438 ft 418 kts 104°
2026-05-07 08:01 48.64680 3.33491 23809 ft 420 kts 104°
2026-05-07 08:01 48.63982 3.37787 24161 ft 422 kts 104°
2026-05-07 08:01 48.63278 3.42111 24506 ft 423 kts 104°
2026-05-07 08:01 48.62570 3.46446 24857 ft 425 kts 104°
2026-05-07 08:02 48.61860 3.50784 25240 ft 427 kts 104°
2026-05-07 08:02 48.61141 3.55161 25604 ft 429 kts 104°
2026-05-07 08:02 48.60421 3.59541 25989 ft 431 kts 104°
2026-05-07 08:02 48.59694 3.63944 26384 ft 433 kts 104°
2026-05-07 08:03 48.58961 3.68375 26777 ft 436 kts 104°
2026-05-07 08:03 48.58222 3.72833 27199 ft 438 kts 104°
2026-05-07 08:03 48.57478 3.77301 27602 ft 440 kts 104°
2026-05-07 08:03 48.56729 3.81797 28003 ft 443 kts 104°
2026-05-07 08:04 48.55972 3.86323 28429 ft 445 kts 104°
2026-05-07 08:04 48.55212 3.90858 28841 ft 448 kts 104°
2026-05-07 08:04 48.54453 3.95372 29253 ft 450 kts 104°
2026-05-07 08:04 48.53679 3.99966 29685 ft 453 kts 104°
2026-05-07 08:05 48.52899 4.04581 30113 ft 456 kts 104°
2026-05-07 08:05 48.52111 4.09229 30466 ft 459 kts 104°
2026-05-07 08:05 48.51318 4.13897 30829 ft 461 kts 104°
2026-05-07 08:05 48.50516 4.18605 31179 ft 464 kts 104°
2026-05-07 08:06 48.49709 4.23329 31525 ft 467 kts 104°
2026-05-07 08:06 48.48893 4.28093 31868 ft 470 kts 104°
2026-05-07 08:06 48.48071 4.32878 32211 ft 472 kts 104°
2026-05-07 08:06 48.47243 4.37685 32566 ft 475 kts 104°
2026-05-07 08:07 48.46409 4.42517 32894 ft 478 kts 104°
2026-05-07 08:07 48.45564 4.47394 33236 ft 481 kts 104°
2026-05-07 08:07 48.44714 4.52287 33562 ft 484 kts 104°
2026-05-07 08:07 48.43855 4.57222 33887 ft 487 kts 104°
2026-05-07 08:08 48.43002 4.62109 34179 ft 490 kts 104°
2026-05-07 08:08 48.42131 4.67083 34433 ft 493 kts 104°
2026-05-07 08:08 48.41252 4.72086 34753 ft 495 kts 104°
2026-05-07 08:08 48.40370 4.77095 35107 ft 496 kts 105°
2026-05-07 08:09 48.39486 4.82098 35463 ft 496 kts 105°
2026-05-07 08:09 48.38590 4.87156 35815 ft 497 kts 105°
2026-05-07 08:09 48.37709 4.92117 36177 ft 497 kts 105°
2026-05-07 08:09 48.36803 4.97205 36534 ft 497 kts 105°
2026-05-07 08:10 48.35916 5.02173 36861 ft 498 kts 105°
2026-05-07 08:10 48.35014 5.07208 37049 ft 502 kts 105°
2026-05-07 08:10 48.34098 5.12305 37032 ft 504 kts 105°
2026-05-07 08:11 48.32274 5.22420 37034 ft 501 kts 105°
2026-05-07 08:11 48.30436 5.32556 37031 ft 503 kts 105°
2026-05-07 08:12 48.28588 5.42691 37029 ft 503 kts 106°
2026-05-07 08:12 48.26729 5.52825 37031 ft 503 kts 106°
2026-05-07 08:13 48.24862 5.62947 37024 ft 503 kts 106°
2026-05-07 08:13 48.23304 5.71355 37021 ft 503 kts 106°
2026-05-07 08:14 48.21422 5.81464 37016 ft 503 kts 106°
2026-05-07 08:14 48.19530 5.91565 37021 ft 503 kts 106°
2026-05-07 08:15 48.17641 6.01598 37015 ft 503 kts 107°
2026-05-07 08:15 48.15731 6.11687 37018 ft 503 kts 107°
2026-05-07 08:16 48.13813 6.21768 37020 ft 503 kts 107°
2026-05-07 08:16 48.11885 6.31843 37026 ft 504 kts 107°
2026-05-07 08:17 48.09949 6.41913 37032 ft 504 kts 107°
2026-05-07 08:17 48.07998 6.52003 37035 ft 504 kts 107°
2026-05-07 08:18 48.06044 6.62051 37031 ft 504 kts 107°
2026-05-07 08:18 48.04079 6.72109 37036 ft 504 kts 107°
2026-05-07 08:19 48.02106 6.82153 37024 ft 504 kts 107°
2026-05-07 08:19 48.00122 6.92204 37026 ft 505 kts 108°
2026-05-07 08:20 47.98127 7.02256 37025 ft 505 kts 108°
2026-05-07 08:20 47.96121 7.12311 37025 ft 505 kts 108°
2026-05-07 08:21 47.94109 7.22345 37022 ft 505 kts 108°
2026-05-07 08:21 47.92085 7.32385 37023 ft 505 kts 108°
2026-05-07 08:22 47.90066 7.42353 37022 ft 505 kts 108°
2026-05-07 08:22 47.88020 7.52398 37050 ft 506 kts 108°
2026-05-07 08:23 47.85967 7.62431 37048 ft 506 kts 108°
2026-05-07 08:23 47.83908 7.72445 37047 ft 506 kts 108°
2026-05-07 08:24 47.81840 7.82448 37048 ft 506 kts 108°
2026-05-07 08:24 47.79762 7.92453 37041 ft 505 kts 109°
2026-05-07 08:25 47.77679 8.02430 37026 ft 505 kts 109°
2026-05-07 08:25 47.75587 8.12401 37018 ft 505 kts 109°
2026-05-07 08:26 47.72448 8.27290 37012 ft 505 kts 109°
2026-05-07 08:26 47.70266 8.37205 37008 ft 505 kts 114°
2026-05-07 08:27 47.67140 8.46501 37021 ft 502 kts 124°
2026-05-07 08:27 47.63010 8.54812 37046 ft 500 kts 131°
2026-05-07 08:28 47.58687 8.62897 37051 ft 501 kts 130°
2026-05-07 08:28 47.54365 8.70988 37052 ft 501 kts 130°
2026-05-07 08:29 47.50028 8.79061 37041 ft 501 kts 130°
2026-05-07 08:29 47.45719 8.87049 37036 ft 500 kts 131°
2026-05-07 08:30 47.41369 8.95092 37027 ft 500 kts 131°
2026-05-07 08:30 47.37015 9.03116 37034 ft 501 kts 131°
2026-05-07 08:31 47.32661 9.11117 37036 ft 501 kts 131°
2026-05-07 08:31 47.28293 9.19121 37029 ft 501 kts 131°
2026-05-07 08:32 47.23916 9.27117 37029 ft 501 kts 131°
2026-05-07 08:32 47.19540 9.35090 37023 ft 501 kts 132°
2026-05-07 08:33 47.15151 9.43063 37022 ft 501 kts 132°
2026-05-07 08:33 47.10765 9.51009 37005 ft 501 kts 132°
2026-05-07 08:34 47.06392 9.58903 37028 ft 502 kts 132°
2026-05-07 08:34 47.01981 9.66846 37028 ft 502 kts 132°
2026-05-07 08:35 46.97557 9.74790 37035 ft 502 kts 132°
2026-05-07 08:35 46.93128 9.82718 37028 ft 502 kts 132°
2026-05-07 08:36 46.88698 9.90628 37019 ft 503 kts 133°
2026-05-07 08:36 46.84258 9.98531 37017 ft 503 kts 133°
2026-05-07 08:37 46.79848 10.06359 37017 ft 501 kts 133°
2026-05-07 08:37 46.75418 10.14204 37003 ft 500 kts 133°
2026-05-07 08:38 46.70994 10.22012 37015 ft 499 kts 134°
2026-05-07 08:38 46.66569 10.29792 37006 ft 498 kts 133°
2026-05-07 08:39 46.62135 10.37573 36998 ft 500 kts 134°
2026-05-07 08:39 46.57695 10.45346 37003 ft 500 kts 134°
2026-05-07 08:40 46.53527 10.53497 37014 ft 503 kts 129°
2026-05-07 08:40 46.49451 10.61740 37003 ft 502 kts 130°
2026-05-07 08:41 46.45390 10.69922 36993 ft 501 kts 130°
2026-05-07 08:41 46.41296 10.78136 36978 ft 500 kts 130°
2026-05-07 08:42 46.37213 10.86291 36984 ft 500 kts 130°
2026-05-07 08:42 46.33125 10.94449 37010 ft 501 kts 130°
2026-05-07 08:43 46.29017 11.02620 37018 ft 501 kts 130°
2026-05-07 08:43 46.24905 11.10772 37031 ft 503 kts 130°
2026-05-07 08:44 46.20780 11.18932 37031 ft 503 kts 131°
2026-05-07 08:44 46.16646 11.27082 36995 ft 502 kts 131°
2026-05-07 08:45 46.12541 11.35146 36989 ft 502 kts 131°
2026-05-07 08:45 46.08408 11.43244 36973 ft 500 kts 131°
2026-05-07 08:46 46.04287 11.51298 36962 ft 499 kts 131°
2026-05-07 08:46 46.00169 11.59327 36950 ft 496 kts 131°
2026-05-07 08:47 45.96064 11.67305 36938 ft 497 kts 132°
2026-05-07 08:47 45.91934 11.75299 36952 ft 499 kts 131°
2026-05-07 08:48 45.87789 11.83310 36970 ft 500 kts 131°
2026-05-07 08:48 45.83648 11.91288 37000 ft 500 kts 132°
2026-05-07 08:49 45.79477 11.99300 36993 ft 501 kts 132°
2026-05-07 08:49 45.75306 12.07291 36985 ft 500 kts 132°
2026-05-07 08:50 45.71135 12.15260 36963 ft 500 kts 132°
2026-05-07 08:50 45.66988 12.23159 36968 ft 499 kts 132°
2026-05-07 08:51 45.62817 12.31082 36998 ft 498 kts 132°
2026-05-07 08:51 45.58618 12.39036 36997 ft 498 kts 132°
2026-05-07 08:52 45.54465 12.46880 36995 ft 498 kts 133°
2026-05-07 08:52 45.50284 12.54756 36975 ft 498 kts 133°
2026-05-07 08:53 45.46092 12.62630 36968 ft 498 kts 133°
2026-05-07 08:53 45.41907 12.70470 36976 ft 498 kts 133°
2026-05-07 08:54 45.37708 12.78314 36982 ft 498 kts 133°
2026-05-07 08:54 45.33503 12.86147 36967 ft 498 kts 133°
2026-05-07 08:55 45.29291 12.93974 36988 ft 498 kts 133°
2026-05-07 08:55 45.25073 13.01803 36991 ft 499 kts 133°
2026-05-07 08:56 45.20870 13.09639 36993 ft 499 kts 133°
2026-05-07 08:56 45.16671 13.17492 37004 ft 500 kts 133°
2026-05-07 08:57 45.12492 13.25292 37014 ft 500 kts 133°
2026-05-07 08:57 45.08274 13.33141 37017 ft 501 kts 133°
2026-05-07 08:58 45.04045 13.40983 37012 ft 502 kts 133°
2026-05-07 08:58 44.99791 13.48842 37022 ft 502 kts 133°
2026-05-07 08:59 44.96271 13.55330 37257 ft 501 kts 133°
2026-05-07 08:59 44.94150 13.59230 37496 ft 501 kts 133°
2026-05-07 08:59 44.92024 13.63134 37777 ft 502 kts 133°
2026-05-07 09:00 44.89894 13.67040 38062 ft 503 kts 133°
2026-05-07 09:00 44.87763 13.70944 38345 ft 502 kts 133°
2026-05-07 09:00 44.85622 13.74859 38624 ft 503 kts 133°
2026-05-07 09:00 44.83483 13.78766 38866 ft 503 kts 133°
2026-05-07 09:01 44.81340 13.82677 38990 ft 501 kts 133°
2026-05-07 09:01 44.79218 13.86548 39021 ft 499 kts 133°
2026-05-07 09:01 44.74977 13.94256 39022 ft 498 kts 133°
2026-05-07 09:02 44.70727 14.01961 39017 ft 498 kts 133°
2026-05-07 09:02 44.66500 14.09604 39026 ft 498 kts 133°
2026-05-07 09:03 44.62243 14.17280 39034 ft 499 kts 133°
2026-05-07 09:03 44.57979 14.24951 39019 ft 498 kts 133°
2026-05-07 09:04 44.53721 14.32592 39009 ft 496 kts 133°
2026-05-07 09:04 44.49471 14.40196 39004 ft 495 kts 134°
2026-05-07 09:05 44.45217 14.47786 38983 ft 495 kts 133°
2026-05-07 09:05 44.40950 14.55378 38982 ft 497 kts 134°
2026-05-07 09:06 44.36669 14.62977 39010 ft 498 kts 134°
2026-05-07 09:06 44.32369 14.70591 39020 ft 500 kts 134°
2026-05-07 09:07 44.28052 14.78212 39027 ft 500 kts 134°
2026-05-07 09:07 44.23725 14.85832 39025 ft 501 kts 134°
2026-05-07 09:08 44.19393 14.93442 39026 ft 502 kts 134°
2026-05-07 09:08 44.15069 15.01017 39019 ft 502 kts 133°
2026-05-07 09:09 44.10720 15.08616 39037 ft 502 kts 134°
2026-05-07 09:09 44.06356 15.16220 39054 ft 503 kts 134°
2026-05-07 09:10 44.01980 15.23828 39057 ft 503 kts 134°
2026-05-07 09:10 43.97606 15.31409 39047 ft 503 kts 133°
2026-05-07 09:11 43.93229 15.38978 39045 ft 502 kts 133°
2026-05-07 09:11 43.88854 15.46521 39033 ft 502 kts 133°
2026-05-07 09:12 43.84500 15.54011 39033 ft 502 kts 133°
2026-05-07 09:12 43.80110 15.61541 39034 ft 502 kts 134°
2026-05-07 09:13 43.75719 15.69053 39055 ft 501 kts 133°
2026-05-07 09:13 43.71335 15.76536 39049 ft 499 kts 133°
2026-05-07 09:14 43.66965 15.83975 39040 ft 499 kts 133°
2026-05-07 09:14 43.62600 15.91388 39030 ft 497 kts 133°
2026-05-07 09:15 43.58235 15.98780 39035 ft 496 kts 133°
2026-05-07 09:15 43.53875 16.06147 39044 ft 494 kts 133°
2026-05-07 09:16 43.49563 16.13413 39040 ft 493 kts 133°
2026-05-07 09:16 43.45217 16.20717 39025 ft 492 kts 133°
2026-05-07 09:17 43.40872 16.28002 39027 ft 492 kts 133°
2026-05-07 09:17 43.36520 16.35280 39017 ft 494 kts 133°
2026-05-07 09:18 43.32144 16.42581 39052 ft 494 kts 133°
2026-05-07 09:18 43.27768 16.49862 39058 ft 494 kts 133°
2026-05-07 09:19 43.23389 16.57131 39053 ft 494 kts 133°
2026-05-07 09:19 43.19031 16.64349 39052 ft 494 kts 133°
2026-05-07 09:20 43.14635 16.71609 39046 ft 494 kts 133°
2026-05-07 09:20 43.10243 16.78846 39066 ft 495 kts 133°
2026-05-07 09:21 43.05835 16.86092 39064 ft 495 kts 133°
2026-05-07 09:21 43.01421 16.93329 39071 ft 495 kts 134°
2026-05-07 09:22 42.97014 17.00538 39071 ft 495 kts 134°
2026-05-07 09:22 42.92624 17.07699 39060 ft 494 kts 134°
2026-05-07 09:23 42.88203 17.14895 39067 ft 494 kts 134°
2026-05-07 09:23 42.83782 17.22072 39073 ft 495 kts 134°
2026-05-07 09:24 42.79353 17.29246 39075 ft 495 kts 134°
2026-05-07 09:24 42.74906 17.36431 39084 ft 495 kts 134°
2026-05-07 09:25 42.70463 17.43591 39086 ft 495 kts 134°
2026-05-07 09:25 42.66023 17.50729 39079 ft 495 kts 134°
2026-05-07 09:26 42.61559 17.57888 39092 ft 497 kts 134°
2026-05-07 09:26 42.57088 17.65042 39100 ft 497 kts 134°
2026-05-07 09:27 42.52639 17.72144 39093 ft 496 kts 134°
2026-05-07 09:28 42.45935 17.82814 39093 ft 495 kts 134°
2026-05-07 09:28 42.41454 17.89923 39098 ft 495 kts 134°
2026-05-07 09:29 42.37005 17.96964 39086 ft 495 kts 134°
2026-05-07 09:29 42.32519 18.04047 39093 ft 496 kts 134°
2026-05-07 09:30 42.28026 18.11124 39099 ft 496 kts 134°
2026-05-07 09:30 42.23519 18.18206 39108 ft 497 kts 134°
2026-05-07 09:31 42.19016 18.25265 39111 ft 497 kts 134°
2026-05-07 09:31 42.14504 18.32323 39104 ft 497 kts 134°
2026-05-07 09:32 42.09988 18.39378 39091 ft 497 kts 134°
2026-05-07 09:32 42.05461 18.46434 39105 ft 498 kts 134°
2026-05-07 09:33 42.00927 18.53486 39110 ft 499 kts 134°
2026-05-07 09:33 41.96497 18.60687 39121 ft 500 kts 133°
2026-05-07 09:34 41.92114 18.67965 39115 ft 500 kts 133°
2026-05-07 09:34 41.87718 18.75205 39123 ft 500 kts 133°
2026-05-07 09:35 41.83327 18.82389 39099 ft 501 kts 133°
2026-05-07 09:35 41.78897 18.89615 39106 ft 502 kts 133°
2026-05-07 09:36 41.74454 18.96845 39108 ft 502 kts 133°
2026-05-07 09:36 41.70007 19.04065 39118 ft 503 kts 133°
2026-05-07 09:37 41.65549 19.11286 39109 ft 504 kts 133°
2026-05-07 09:37 41.61084 19.18499 39125 ft 504 kts 133°
2026-05-07 09:38 41.56610 19.25712 39123 ft 504 kts 133°
2026-05-07 09:38 41.49833 19.36604 39124 ft 505 kts 133°
2026-05-07 09:39 41.40891 19.50918 39121 ft 505 kts 133°
2026-05-07 09:39 41.31870 19.65286 39131 ft 505 kts 133°
2026-05-07 09:40 41.22837 19.79604 39109 ft 505 kts 134°
2026-05-07 09:40 41.13764 19.93919 39135 ft 506 kts 134°
2026-05-07 09:41 41.04674 20.08195 39148 ft 507 kts 134°
2026-05-07 09:41 40.95574 20.22418 39157 ft 506 kts 134°
2026-05-07 09:42 40.86442 20.36624 39170 ft 507 kts 134°
2026-05-07 09:42 40.77297 20.50786 39160 ft 506 kts 134°
2026-05-07 09:43 40.68147 20.64888 39156 ft 506 kts 134°
2026-05-07 09:43 40.58940 20.79013 39181 ft 509 kts 134°
2026-05-07 09:44 40.49685 20.93129 39197 ft 509 kts 136°
2026-05-07 09:44 40.39239 21.05240 39179 ft 503 kts 145°
2026-05-07 09:45 40.28450 21.17022 39182 ft 504 kts 144°
2026-05-07 09:45 40.19477 21.26790 39178 ft 505 kts 145°
2026-05-07 09:46 40.08627 21.38548 39174 ft 507 kts 145°
2026-05-07 09:46 39.97708 21.50320 39180 ft 511 kts 145°
2026-05-07 09:47 39.86770 21.62066 39143 ft 508 kts 145°
2026-05-07 09:47 39.75822 21.73764 39145 ft 509 kts 145°
2026-05-07 09:48 39.64876 21.85415 39110 ft 510 kts 145°
2026-05-07 09:48 39.53912 21.97036 39132 ft 513 kts 145°
2026-05-07 09:49 39.42831 22.08732 39134 ft 515 kts 145°
2026-05-07 09:49 39.31681 22.20450 39116 ft 519 kts 146°
2026-05-07 09:50 39.20443 22.32209 39130 ft 521 kts 146°
2026-05-07 09:50 39.09174 22.43953 39110 ft 522 kts 146°
2026-05-07 09:51 38.97819 22.55733 39111 ft 525 kts 146°
2026-05-07 09:51 38.86430 22.67502 39121 ft 525 kts 146°
2026-05-07 09:52 38.75001 22.79259 39095 ft 528 kts 146°
2026-05-07 09:52 38.63497 22.91046 39116 ft 531 kts 146°
2026-05-07 09:53 38.51919 23.02856 39102 ft 533 kts 146°
2026-05-07 09:53 38.43820 23.11088 39102 ft 535 kts 146°
2026-05-07 09:54 38.37988 23.16999 39111 ft 535 kts 146°
2026-05-07 09:54 38.32150 23.22905 39116 ft 536 kts 146°
2026-05-07 09:55 38.26306 23.28806 39117 ft 536 kts 146°
2026-05-07 09:55 38.20454 23.34701 39117 ft 536 kts 146°
2026-05-07 09:56 38.14617 23.40570 39117 ft 535 kts 146°
2026-05-07 09:56 38.08777 23.46429 39131 ft 535 kts 146°
2026-05-07 09:57 38.02930 23.52282 39085 ft 535 kts 146°
2026-05-07 09:57 37.97084 23.58123 39107 ft 536 kts 146°
2026-05-07 09:58 37.91222 23.63966 39110 ft 537 kts 146°
2026-05-07 09:58 37.85341 23.69817 39121 ft 538 kts 146°
2026-05-07 09:59 37.79486 23.75630 39123 ft 539 kts 146°
2026-05-07 09:59 37.73579 23.81482 39098 ft 541 kts 146°
2026-05-07 10:00 37.67636 23.87357 39111 ft 543 kts 146°
2026-05-07 10:00 37.61664 23.93249 39128 ft 545 kts 146°
2026-05-07 10:01 37.55676 23.99145 39148 ft 547 kts 146°
2026-05-07 10:01 37.49668 24.05049 39157 ft 547 kts 146°
2026-05-07 10:02 37.43649 24.10949 39126 ft 550 kts 146°
2026-05-07 10:02 37.37607 24.16860 39144 ft 551 kts 146°
2026-05-07 10:03 37.31545 24.22779 39154 ft 552 kts 146°
2026-05-07 10:03 37.25468 24.28699 39161 ft 553 kts 146°
2026-05-07 10:04 37.19387 24.34612 39119 ft 554 kts 147°
2026-05-07 10:04 37.13278 24.40537 39135 ft 556 kts 147°
2026-05-07 10:05 37.07143 24.46478 39147 ft 558 kts 147°
2026-05-07 10:05 37.01028 24.52385 39165 ft 559 kts 147°
2026-05-07 10:06 36.94859 24.58334 39178 ft 560 kts 147°
2026-05-07 10:06 36.88674 24.64283 39112 ft 563 kts 147°
2026-05-07 10:07 36.82456 24.70252 39137 ft 566 kts 147°
2026-05-07 10:07 36.76197 24.76248 39156 ft 568 kts 147°
2026-05-07 10:08 36.69916 24.82253 39179 ft 570 kts 147°
2026-05-07 10:08 36.63617 24.88262 39171 ft 571 kts 147°
2026-05-07 10:09 36.57283 24.94293 39169 ft 573 kts 147°
2026-05-07 10:09 36.50938 25.00320 39179 ft 574 kts 147°
2026-05-07 10:10 36.44578 25.06349 39184 ft 574 kts 147°
2026-05-07 10:10 36.38264 25.12322 39183 ft 574 kts 147°
2026-05-07 10:11 36.31901 25.18328 39162 ft 575 kts 147°
2026-05-07 10:11 36.25535 25.24325 39162 ft 575 kts 147°
2026-05-07 10:12 36.19159 25.30318 39169 ft 575 kts 147°
2026-05-07 10:12 36.12778 25.36303 39165 ft 576 kts 147°
2026-05-07 10:13 36.06383 25.42289 39147 ft 577 kts 147°
2026-05-07 10:13 35.99978 25.48273 39157 ft 577 kts 147°
2026-05-07 10:14 35.93553 25.54261 39164 ft 578 kts 147°
2026-05-07 10:14 35.87132 25.60234 39167 ft 578 kts 147°
2026-05-07 10:15 35.78230 25.68495 39148 ft 580 kts 146°
2026-05-07 10:15 35.65488 25.80279 39165 ft 580 kts 146°
2026-05-07 10:16 35.52561 25.92183 39172 ft 581 kts 146°
2026-05-07 10:16 35.39615 26.04055 39168 ft 581 kts 146°
2026-05-07 10:17 35.26637 26.15909 39169 ft 581 kts 146°
2026-05-07 10:17 35.13663 26.27708 39182 ft 581 kts 146°
2026-05-07 10:18 35.00657 26.39491 39171 ft 582 kts 146°
2026-05-07 10:18 34.87616 26.51256 39171 ft 582 kts 146°
2026-05-07 10:19 34.74603 26.62949 39185 ft 581 kts 145°
2026-05-07 10:19 34.61674 26.74521 39167 ft 580 kts 145°
2026-05-07 10:20 34.48660 26.86123 39167 ft 580 kts 145°
2026-05-07 10:20 34.35655 26.97670 39176 ft 580 kts 145°
2026-05-07 10:21 34.22632 27.09190 39167 ft 579 kts 144°
2026-05-07 10:21 34.09618 27.20665 39172 ft 579 kts 144°
2026-05-07 10:22 33.96526 27.31968 39191 ft 577 kts 149°
2026-05-07 10:22 33.89434 27.36433 39183 ft 573 kts 160°
2026-05-07 10:22 33.82105 27.40235 39179 ft 573 kts 159°
2026-05-07 10:23 33.67499 27.47961 39182 ft 573 kts 158°
2026-05-07 10:23 33.52887 27.55646 39180 ft 573 kts 158°
2026-05-07 10:24 33.38268 27.63305 39174 ft 573 kts 158°
2026-05-07 10:24 33.23776 27.70869 39172 ft 572 kts 158°
2026-05-07 10:25 33.08725 27.78697 39174 ft 571 kts 158°
2026-05-07 10:25 32.94159 27.86244 39154 ft 570 kts 158°
2026-05-07 10:26 32.79649 27.93735 39170 ft 568 kts 158°
2026-05-07 10:26 32.65147 28.01196 39164 ft 567 kts 158°
2026-05-07 10:27 32.50671 28.08616 39183 ft 567 kts 157°
2026-05-07 10:27 32.36208 28.16005 39175 ft 564 kts 157°
2026-05-07 10:28 32.21813 28.23332 39164 ft 563 kts 157°
2026-05-07 10:28 32.07421 28.30633 39171 ft 561 kts 157°
2026-05-07 10:29 31.93081 28.37882 39180 ft 560 kts 157°
2026-05-07 10:29 31.78764 28.45096 39163 ft 559 kts 157°
2026-05-07 10:30 31.57449 28.55790 39163 ft 557 kts 156°
2026-05-07 10:30 31.43213 28.62903 39152 ft 556 kts 157°
2026-05-07 10:31 31.28969 28.69996 39170 ft 555 kts 156°
2026-05-07 10:31 31.14779 28.77040 39162 ft 552 kts 156°
2026-05-07 10:32 31.03018 28.82859 39138 ft 551 kts 156°
2026-05-07 10:32 30.88897 28.89827 39142 ft 551 kts 156°
2026-05-07 10:33 30.74738 28.96791 39145 ft 551 kts 156°
2026-05-07 10:33 30.60780 29.03634 39144 ft 546 kts 156°
2026-05-07 10:34 30.47579 29.12051 39119 ft 540 kts 137°
2026-05-07 10:34 30.37107 29.24384 39096 ft 536 kts 131°
2026-05-07 10:35 30.26753 29.36746 39105 ft 534 kts 131°
2026-05-07 10:35 30.16418 29.49075 39108 ft 533 kts 131°
2026-05-07 10:36 30.06098 29.61345 39119 ft 531 kts 133°
2026-05-07 10:36 29.95817 29.73529 39108 ft 529 kts 133°
2026-05-07 10:37 29.85612 29.85586 39114 ft 527 kts 134°
2026-05-07 10:37 29.75393 29.97619 39094 ft 524 kts 134°
2026-05-07 10:38 29.65193 30.09594 39080 ft 524 kts 134°
2026-05-07 10:38 29.54984 30.21542 39087 ft 522 kts 134°
2026-05-07 10:39 29.44815 30.33409 39077 ft 521 kts 134°
2026-05-07 10:39 29.34695 30.45305 39081 ft 520 kts 134°
2026-05-07 10:40 29.24685 30.57283 39082 ft 520 kts 134°
2026-05-07 10:40 29.14635 30.69231 39084 ft 520 kts 134°
2026-05-07 10:41 29.04637 30.81081 39074 ft 521 kts 134°
2026-05-07 10:41 28.94544 30.93009 39073 ft 521 kts 134°
2026-05-07 10:42 28.84473 31.04874 39091 ft 520 kts 135°
2026-05-07 10:42 28.74403 31.16705 39088 ft 518 kts 135°
2026-05-07 10:43 28.64520 31.28673 39076 ft 517 kts 133°
2026-05-07 10:43 28.54973 31.40792 39073 ft 517 kts 133°
2026-05-07 10:44 28.45308 31.52917 39078 ft 517 kts 134°
2026-05-07 10:44 28.35645 31.65004 39078 ft 515 kts 134°
2026-05-07 10:45 28.26010 31.77021 39057 ft 515 kts 134°
2026-05-07 10:45 28.16373 31.89006 39066 ft 514 kts 134°
2026-05-07 10:46 28.06721 32.00974 39053 ft 514 kts 134°
2026-05-07 10:46 28.02342 32.07393 39052 ft 516 kts 123°
2026-05-07 10:46 27.98906 32.14377 39052 ft 516 kts 120°
2026-05-07 10:47 27.92024 32.28658 39026 ft 515 kts 120°
2026-05-07 10:47 27.85146 32.42872 38985 ft 515 kts 121°
2026-05-07 10:48 27.78258 32.57061 38982 ft 515 kts 121°
2026-05-07 10:48 27.71355 32.71236 38987 ft 515 kts 121°
2026-05-07 10:49 27.64478 32.85309 38977 ft 515 kts 121°
2026-05-07 10:49 27.57506 32.99525 38978 ft 515 kts 122°
2026-05-07 10:50 27.50621 33.13516 38979 ft 514 kts 122°
2026-05-07 10:50 27.43663 33.27612 38972 ft 513 kts 122°
2026-05-07 10:51 27.36714 33.41647 38970 ft 513 kts 122°
2026-05-07 10:51 27.29743 33.55665 38962 ft 514 kts 122°
2026-05-07 10:52 27.22742 33.69704 38963 ft 516 kts 123°
2026-05-07 10:52 27.16183 33.84063 38974 ft 520 kts 114°
2026-05-07 10:53 27.10843 33.99155 38968 ft 520 kts 115°
2026-05-07 10:53 27.05491 34.14143 38965 ft 520 kts 115°
2026-05-07 10:54 27.00098 34.29192 38963 ft 520 kts 116°
2026-05-07 10:54 26.94688 34.44227 38958 ft 520 kts 116°
2026-05-07 10:55 26.89259 34.59256 38949 ft 520 kts 117°
2026-05-07 10:55 26.83819 34.74257 38929 ft 520 kts 117°
2026-05-07 10:56 26.78381 34.89193 38944 ft 520 kts 117°
2026-05-07 10:56 26.72902 35.04197 38926 ft 521 kts 118°
2026-05-07 10:57 26.67408 35.19187 38926 ft 521 kts 118°
2026-05-07 10:57 26.61892 35.34181 38936 ft 521 kts 118°
2026-05-07 10:58 26.56371 35.49131 38934 ft 521 kts 118°
2026-05-07 10:58 26.50727 35.63913 38931 ft 520 kts 120°
2026-05-07 10:59 26.45000 35.78863 38886 ft 520 kts 121°
2026-05-07 10:59 26.41051 35.94524 38944 ft 542 kts 100°
2026-05-07 11:00 26.39792 36.11180 38944 ft 542 kts 101°
2026-05-07 11:00 26.38398 36.28045 38907 ft 542 kts 101°
2026-05-07 11:01 26.36998 36.44702 38914 ft 542 kts 101°
2026-05-07 11:01 26.35569 36.61461 38917 ft 544 kts 102°
2026-05-07 11:02 26.34109 36.78344 38913 ft 547 kts 102°
2026-05-07 11:02 26.32618 36.95263 38941 ft 550 kts 102°
2026-05-07 11:03 26.31099 37.12261 38968 ft 551 kts 102°
2026-05-07 11:03 26.29562 37.29251 38942 ft 551 kts 103°
2026-05-07 11:04 26.28016 37.46123 38951 ft 548 kts 103°
2026-05-07 11:04 26.26445 37.63005 38926 ft 548 kts 103°
2026-05-07 11:05 26.24860 37.79857 38912 ft 547 kts 103°
2026-05-07 11:05 26.23249 37.96737 38913 ft 549 kts 103°
2026-05-07 11:06 26.21617 38.13664 38935 ft 550 kts 103°
2026-05-07 11:06 26.19962 38.30599 38943 ft 550 kts 103°
2026-05-07 11:07 26.18295 38.47452 38962 ft 550 kts 104°
2026-05-07 11:07 26.16591 38.64489 38956 ft 550 kts 104°
2026-05-07 11:08 26.14890 38.81283 38974 ft 549 kts 104°
2026-05-07 11:08 26.13160 38.98157 38956 ft 547 kts 104°
2026-05-07 11:09 26.11415 39.14968 38948 ft 546 kts 104°
2026-05-07 11:09 26.09651 39.31796 38956 ft 547 kts 104°
2026-05-07 11:10 26.07864 39.48624 38957 ft 548 kts 104°
2026-05-07 11:10 26.06053 39.65503 38973 ft 549 kts 105°
2026-05-07 11:11 26.04233 39.82276 38978 ft 550 kts 105°
2026-05-07 11:11 26.02379 39.99186 38986 ft 549 kts 105°
2026-05-07 11:12 26.00511 40.16026 38976 ft 549 kts 105°
2026-05-07 11:12 25.98622 40.32887 38958 ft 549 kts 106°
2026-05-07 11:13 25.96725 40.49628 38937 ft 550 kts 106°
2026-05-07 11:13 25.94797 40.66486 38952 ft 550 kts 106°
2026-05-07 11:14 25.92848 40.83329 38951 ft 550 kts 106°
2026-05-07 11:14 25.90881 41.00178 38940 ft 550 kts 106°
2026-05-07 11:15 25.88893 41.17019 38939 ft 549 kts 107°
2026-05-07 11:15 25.86849 41.33839 38938 ft 550 kts 107°
2026-05-07 11:16 25.84798 41.50692 38935 ft 551 kts 107°
2026-05-07 11:16 25.82740 41.67586 38942 ft 552 kts 107°
2026-05-07 11:17 25.80698 41.84489 38937 ft 552 kts 107°
2026-05-07 11:17 25.78656 42.01405 38929 ft 553 kts 107°
2026-05-07 11:18 25.76596 42.18308 38940 ft 554 kts 107°
2026-05-07 11:18 25.74507 42.35219 38952 ft 552 kts 107°
2026-05-07 11:19 25.72415 42.52064 38944 ft 552 kts 107°
2026-05-07 11:19 25.70320 42.68866 38951 ft 552 kts 107°
2026-05-07 11:20 25.68206 42.85722 38960 ft 552 kts 107°
2026-05-07 11:20 25.64257 43.01625 38958 ft 510 kts 135°
2026-05-07 11:21 25.59881 43.07548 38949 ft 497 kts 141°
2026-05-07 11:21 25.55445 43.13464 38955 ft 499 kts 141°
2026-05-07 11:21 25.48110 43.23387 38943 ft 500 kts 140°
2026-05-07 11:22 25.39291 43.35285 38969 ft 501 kts 140°
2026-05-07 11:22 25.30434 43.47200 38946 ft 502 kts 140°
2026-05-07 11:23 25.21552 43.59120 38963 ft 503 kts 140°
2026-05-07 11:23 25.12625 43.71068 38955 ft 504 kts 140°
2026-05-07 11:24 25.03758 43.82908 38959 ft 504 kts 140°
2026-05-07 11:24 24.94830 43.94801 38947 ft 503 kts 139°
2026-05-07 11:25 24.85894 44.06672 38940 ft 502 kts 139°
2026-05-07 11:25 24.76958 44.18512 38942 ft 502 kts 139°
2026-05-07 11:26 24.68026 44.30320 38950 ft 502 kts 139°
2026-05-07 11:26 24.59087 44.42108 38949 ft 502 kts 139°
2026-05-07 11:27 24.50131 44.53889 38949 ft 502 kts 138°
2026-05-07 11:27 24.41224 44.65577 38942 ft 502 kts 138°
2026-05-07 11:28 24.32251 44.77322 38947 ft 502 kts 138°
2026-05-07 11:28 24.23257 44.89067 38943 ft 502 kts 138°
2026-05-07 11:29 24.14265 45.00781 38941 ft 503 kts 138°
2026-05-07 11:29 24.05244 45.12504 38929 ft 503 kts 138°
2026-05-07 11:30 23.96214 45.24211 38932 ft 504 kts 138°
2026-05-07 11:30 23.87149 45.35936 38942 ft 505 kts 138°
2026-05-07 11:31 23.78065 45.47658 38937 ft 506 kts 137°
2026-05-07 11:31 23.68958 45.59382 38929 ft 506 kts 137°
2026-05-07 11:32 23.62747 45.73390 38927 ft 537 kts 102°
2026-05-07 11:32 23.62062 45.81448 38921 ft 540 kts 99°
2026-05-07 11:33 23.60640 45.97742 38932 ft 541 kts 99°
2026-05-07 11:33 23.59206 46.14098 38942 ft 542 kts 100°
2026-05-07 11:34 23.57754 46.30476 38950 ft 542 kts 100°
2026-05-07 11:34 23.56294 46.46822 38952 ft 542 kts 98°
2026-05-07 11:34 23.56420 46.55083 38952 ft 548 kts 86°
2026-05-07 11:35 23.57774 46.63280 38954 ft 550 kts 81°
2026-05-07 11:35 23.60698 46.79607 38943 ft 548 kts 81°
2026-05-07 11:36 23.63595 46.95824 38930 ft 548 kts 81°
2026-05-07 11:36 23.66494 47.12156 38920 ft 547 kts 81°
2026-05-07 11:37 23.69372 47.28474 38905 ft 547 kts 81°
2026-05-07 11:37 23.72228 47.44775 38900 ft 548 kts 81°
2026-05-07 11:38 23.75079 47.61149 38890 ft 548 kts 81°
2026-05-07 11:38 23.77910 47.77512 38888 ft 549 kts 81°
2026-05-07 11:39 23.80726 47.93901 38872 ft 549 kts 81°
2026-05-07 11:39 23.83521 48.10270 38864 ft 549 kts 81°
2026-05-07 11:40 23.86302 48.26668 38865 ft 547 kts 81°
2026-05-07 11:40 23.88872 48.41919 38850 ft 547 kts 81°
2026-05-07 11:41 23.90231 48.50037 38839 ft 546 kts 81°
2026-05-07 11:41 23.91597 48.58220 38835 ft 546 kts 81°
2026-05-07 11:42 23.92956 48.66378 38839 ft 546 kts 81°
2026-05-07 11:42 23.94310 48.74531 38837 ft 545 kts 81°
2026-05-07 11:43 23.95661 48.82698 38836 ft 545 kts 81°
2026-05-07 11:43 23.97008 48.90869 38837 ft 546 kts 81°
2026-05-07 11:44 23.98350 48.99039 38836 ft 546 kts 81°
2026-05-07 11:44 23.99689 49.07214 38832 ft 546 kts 81°
2026-05-07 11:45 24.01025 49.15399 38828 ft 546 kts 81°
2026-05-07 11:45 24.02358 49.23597 38828 ft 546 kts 81°
2026-05-07 11:46 24.03676 49.31730 38825 ft 546 kts 81°
2026-05-07 11:46 24.04998 49.39913 38831 ft 546 kts 81°
2026-05-07 11:47 24.06551 49.49567 38828 ft 545 kts 81°
2026-05-07 11:47 24.08634 49.62560 38821 ft 545 kts 81°
2026-05-07 11:48 24.09934 49.70728 38824 ft 544 kts 81°
2026-05-07 11:48 24.11227 49.78876 38827 ft 543 kts 81°
2026-05-07 11:49 24.12516 49.87023 38830 ft 542 kts 81°
2026-05-07 11:49 24.13790 49.95104 38820 ft 542 kts 81°
2026-05-07 11:50 24.15069 50.03244 38822 ft 542 kts 81°
2026-05-07 11:50 24.16340 50.11359 38814 ft 541 kts 81°
2026-05-07 11:51 24.17610 50.19503 38799 ft 541 kts 81°
2026-05-07 11:51 24.18240 50.23547 38609 ft 536 kts 81°
2026-05-07 11:51 24.18863 50.27561 38367 ft 534 kts 81°
2026-05-07 11:51 24.19486 50.31575 38098 ft 534 kts 81°
2026-05-07 11:52 24.20106 50.35584 37772 ft 534 kts 81°
2026-05-07 11:52 24.20725 50.39593 37116 ft 535 kts 81°
2026-05-07 11:52 24.21339 50.43575 36305 ft 538 kts 81°
2026-05-07 11:52 24.21965 50.47647 35395 ft 542 kts 81°
2026-05-07 11:53 24.22593 50.51732 34439 ft 547 kts 82°
2026-05-07 11:53 24.23224 50.55848 33413 ft 551 kts 82°
2026-05-07 11:53 24.23860 50.60000 32582 ft 550 kts 82°
2026-05-07 11:53 24.24489 50.64107 32070 ft 541 kts 82°
2026-05-07 11:54 24.25104 50.68138 31539 ft 534 kts 82°
2026-05-07 11:54 24.25713 50.72136 30931 ft 529 kts 82°
2026-05-07 11:54 24.26314 50.76090 30311 ft 524 kts 82°
2026-05-07 11:54 24.26910 50.80019 29685 ft 520 kts 82°
2026-05-07 11:55 24.27500 50.83918 29060 ft 514 kts 82°
2026-05-07 11:55 24.28082 50.87773 28451 ft 508 kts 82°
2026-05-07 11:55 24.28654 50.91570 27856 ft 502 kts 82°
2026-05-07 11:55 24.29212 50.95271 27269 ft 496 kts 82°
2026-05-07 11:56 24.29769 50.98978 26683 ft 490 kts 81°
2026-05-07 11:56 24.30320 51.02648 26093 ft 485 kts 81°
2026-05-07 11:56 24.30862 51.06268 25522 ft 479 kts 81°
2026-05-07 11:56 24.31401 51.09862 24950 ft 474 kts 81°
2026-05-07 11:57 24.31931 51.13405 24377 ft 469 kts 81°
2026-05-07 11:57 24.32457 51.16918 23809 ft 464 kts 81°
2026-05-07 11:57 24.33017 51.20378 23208 ft 458 kts 76°
2026-05-07 11:57 24.34088 51.23640 22634 ft 451 kts 63°
2026-05-07 11:58 24.35759 51.26515 22078 ft 443 kts 50°
2026-05-07 11:58 24.37898 51.28895 21544 ft 435 kts 41°
2026-05-07 11:58 24.40189 51.31030 20999 ft 429 kts 39°
2026-05-07 11:58 24.42447 51.33129 20473 ft 423 kts 41°
2026-05-07 11:59 24.44613 51.35227 19950 ft 418 kts 42°
2026-05-07 11:59 24.46745 51.37365 19419 ft 413 kts 43°
2026-05-07 11:59 24.48831 51.39501 18904 ft 408 kts 44°
2026-05-07 11:59 24.50891 51.41627 18383 ft 404 kts 44°
2026-05-07 12:00 24.53060 51.43556 17834 ft 401 kts 36°
2026-05-07 12:00 24.55445 51.45120 17318 ft 396 kts 27°
2026-05-07 12:00 24.57916 51.46423 16798 ft 390 kts 27°
2026-05-07 12:00 24.60335 51.47719 16291 ft 385 kts 27°
2026-05-07 12:01 24.62718 51.49011 15793 ft 379 kts 27°
2026-05-07 12:01 24.65074 51.50290 15293 ft 375 kts 27°
2026-05-07 12:01 24.67399 51.51550 14926 ft 368 kts 27°
2026-05-07 12:01 24.69682 51.52777 14765 ft 364 kts 26°
2026-05-07 12:02 24.71986 51.53926 14391 ft 362 kts 24°
2026-05-07 12:02 24.74285 51.55025 13947 ft 358 kts 24°
2026-05-07 12:02 24.76565 51.56113 13412 ft 356 kts 24°
2026-05-07 12:02 24.78822 51.57200 13064 ft 349 kts 24°
2026-05-07 12:03 24.80994 51.58255 12978 ft 334 kts 24°
2026-05-07 12:03 24.83071 51.59257 12905 ft 319 kts 21°
2026-05-07 12:03 24.85157 51.59854 12785 ft 309 kts
2026-05-07 12:03 24.87291 51.59893 12461 ft 307 kts 355°
2026-05-07 12:04 24.89412 51.59657 12076 ft 306 kts 355°
2026-05-07 12:04 24.91524 51.59446 11695 ft 304 kts 356°
2026-05-07 12:04 24.93631 51.59247 11337 ft 303 kts 356°
2026-05-07 12:04 24.95720 51.59051 10983 ft 301 kts 356°
2026-05-07 12:05 24.97806 51.58810 10622 ft 301 kts 351°
2026-05-07 12:05 24.99818 51.58213 10281 ft 300 kts 341°
2026-05-07 12:05 25.01751 51.57332 10047 ft 299 kts 339°
2026-05-07 12:05 25.03677 51.56473 9977 ft 299 kts 339°
2026-05-07 12:06 25.05610 51.55626 9993 ft 299 kts 340°
2026-05-07 12:06 25.07549 51.54778 9988 ft 299 kts 339°
2026-05-07 12:06 25.09487 51.53928 9992 ft 299 kts 340°
2026-05-07 12:06 25.11419 51.53079 9989 ft 299 kts 339°
2026-05-07 12:07 25.13357 51.52225 9995 ft 299 kts 339°
2026-05-07 12:07 25.15291 51.51372 9992 ft 300 kts 339°
2026-05-07 12:07 25.17197 51.50531 9985 ft 299 kts 340°
2026-05-07 12:07 25.19123 51.49683 9983 ft 298 kts 339°
2026-05-07 12:08 25.20427 51.49106 9875 ft 299 kts 340°
2026-05-07 12:08 25.22994 51.47974 9383 ft 299 kts 339°
2026-05-07 12:08 25.24289 51.47402 9145 ft 297 kts 339°
2026-05-07 12:08 25.26821 51.46281 8654 ft 295 kts 340°
2026-05-07 12:09 25.28725 51.45440 8284 ft 293 kts 340°
2026-05-07 12:09 25.30608 51.44607 8012 ft 291 kts 341°
2026-05-07 12:09 25.31858 51.44055 7746 ft 291 kts 341°
2026-05-07 12:09 25.33743 51.43223 7314 ft 292 kts 340°
2026-05-07 12:10 25.35633 51.42386 6912 ft 293 kts 340°
2026-05-07 12:10 25.37528 51.41548 6536 ft 292 kts 340°
2026-05-07 12:10 25.39406 51.40715 6181 ft 289 kts 340°
2026-05-07 12:10 25.41272 51.39888 5823 ft 287 kts 340°
2026-05-07 12:11 25.43123 51.39067 5463 ft 286 kts 340°
2026-05-07 12:11 25.44969 51.38249 5094 ft 285 kts 340°
2026-05-07 12:11 25.46803 51.37437 4765 ft 281 kts 341°
2026-05-07 12:11 25.48643 51.37023 4406 ft 269 kts
2026-05-07 12:12 25.50496 51.37044 4085 ft 264 kts
2026-05-07 12:12 25.52304 51.37066 3851 ft 257 kts
2026-05-07 12:12 25.54039 51.37305 3604 ft 248 kts 23°
2026-05-07 12:12 25.55416 51.38364 3360 ft 239 kts 54°
2026-05-07 12:13 25.56078 51.39992 3139 ft 232 kts 84°
2026-05-07 12:13 25.55855 51.41739 2996 ft 231 kts 116°
2026-05-07 12:13 25.54885 51.43132 2971 ft 230 kts 133°
2026-05-07 12:13 25.53767 51.44438 2809 ft 235 kts 133°
2026-05-07 12:14 25.52645 51.45750 2635 ft 233 kts 133°
2026-05-07 12:14 25.51529 51.47065 2488 ft 236 kts 133°
2026-05-07 12:14 25.50419 51.48380 2486 ft 232 kts 133°
2026-05-07 12:14 25.49309 51.49694 2487 ft 235 kts 133°
2026-05-07 12:15 25.48198 51.51017 2484 ft 235 kts 133°
2026-05-07 12:15 25.47081 51.52340 2483 ft 235 kts 134°
2026-05-07 12:15 25.45814 51.53471 2481 ft 233 kts 148°
2026-05-07 12:15 25.44411 51.54286 2478 ft 220 kts 155°
2026-05-07 12:16 25.43087 51.54914 2482 ft 192 kts 157°
2026-05-07 12:16 25.41920 51.55437 2460 ft 179 kts 157°
2026-05-07 12:16 25.40756 51.55954 2243 ft 179 kts 158°
2026-05-07 12:16 25.39605 51.56464 2016 ft 182 kts 158°
2026-05-07 12:17 25.38428 51.56985 1777 ft 183 kts 159°
2026-05-07 12:17 25.37255 51.57504 1591 ft 175 kts 160°
2026-05-07 12:17 25.36187 51.57976 1350 ft 158 kts 159°
2026-05-07 12:17 25.35184 51.58421 1154 ft 153 kts 159°
2026-05-07 12:18 25.34203 51.58854 960 ft 153 kts 160°
2026-05-07 12:18 25.33222 51.59297 788 ft 152 kts 159°
2026-05-07 12:18 25.32281 51.59732 631 ft 151 kts 157°
2026-05-07 12:18 25.31308 51.60158 438 ft 149 kts 158°
2026-05-07 12:19 25.30357 51.60557 246 ft 144 kts 157°
2026-05-07 12:19 25.29445 51.60963 59 ft 144 kts 156°
2026-05-07 12:19 25.28600 51.61339 33 ft 108 kts 159°
2026-05-07 12:19 25.28086 51.61562 31 ft 51 kts 159°
2026-05-07 12:20 25.27816 51.61625 31 ft 36 kts 180°
2026-05-07 12:20 25.27728 51.61618 31 ft 10 kts 186°
2026-05-07 12:20 25.27645 51.61607 32 ft 14 kts 187°
2026-05-07 12:20 25.27548 51.61600 33 ft 15 kts 168°
2026-05-07 12:21 25.27446 51.61643 34 ft 17 kts 158°
2026-05-07 12:21 25.27327 51.61694 34 ft 19 kts 161°
2026-05-07 12:21 25.27199 51.61746 33 ft 18 kts 158°
2026-05-07 12:21 25.27108 51.61740 34 ft 13 kts 231°
2026-05-07 12:22 25.27066 51.61640 35 ft 16 kts 249°
2026-05-07 12:22 25.27038 51.61565 35 ft 2 kts 248°
2026-05-07 12:22 25.27025 51.61528 35 ft 9 kts 249°
2026-05-07 12:22 25.26987 51.61456 35 ft 13 kts 218°
2026-05-07 12:23 25.26919 51.61405 35 ft 8 kts 243°
2026-05-07 12:23 25.26928 51.61350 35 ft 10 kts 296°
2026-05-07 12:23 25.26940 51.61319 35 ft 2 kts 294°
2026-05-07 12:23 25.26941 51.61317 35 ft 0 kts 294°